KF8ADQ-10 Weather Reports


Display with metric or nautical units.
time (UTC)temp
F
wind
direction
speed
MPH
gust
MPH
rain 1hr
in
rain 24hr
in
rain mn
in
humidity
%
barometer
mb
20260506073006 47 270 0.0 4.0 0.00 0.00 0.00 99 100.2
20260506043006 49 23 0.0 6.0 0.00 0.00 0.00 99 100.4
20260506040006 49 0 0.0 6.0 0.00 0.00 0.00 99 100.4
20260506033006 49 68 0.0 10.0 0.00 0.00 0.00 99 100.4
20260506030006 50 68 0.0 10.0 0.00 0.00 0.00 99 100.5
20260506023006 50 293 0.0 10.0 0.00 0.00 0.00 99 100.4
20260506020010 51 45 0.0 7.0 0.00 0.00 0.00 99 100.4
20260506013006 51 338 0.0 7.0 0.00 0.00 0.00 99 100.3
20260506010006 52 338 0.0 4.0 0.00 0.00 0.00 99 100.3
20260506003006 52 45 0.0 7.0 0.00 0.00 0.00 99 100.3
20260506000006 53 113 0.0 11.0 0.00 0.00 0.00 97 100.3
20260505233006 57 270 0.0 11.0 0.00 0.00 0.00 94 100.4
20260505230007 60 270 0.0 5.0 0.00 0.00 0.00 90 100.3
20260505223006 61 338 0.0 6.0 0.00 0.00 0.00 87 100.3
20260505220006 62 23 0.0 6.0 0.00 0.00 0.00 85 100.3
20260505213006 64 225 0.0 6.0 0.00 0.00 0.00 81 100.3
20260505210007 65 248 0.0 6.0 0.00 0.00 0.00 78 100.3
20260505203006 66 203 0.0 4.0 0.00 0.00 0.00 74 100.3
20260505200006 66 158 0.0 4.0 0.00 0.00 0.00 74 100.3
20260505193006 66 113 0.0 6.0 0.00 0.00 0.00 74 100.3
20260505190007 66 158 0.0 6.0 0.00 0.00 0.00 73 100.3
20260505183006 65 203 0.0 5.0 0.00 0.00 0.00 74 100.4
20260505180006 67 180 0.0 7.0 0.00 0.00 0.00 70 100.3
20260505173006 68 203 0.0 7.0 0.00 0.00 0.00 69 100.3
20260505170007 68 180 0.0 11.0 0.00 0.00 0.00 68 100.3
20260505163008 71 135 0.0 11.0 0.00 0.00 0.00 63 100.3
20260505153006 69 225 0.0 13.0 0.00 0.00 0.00 66 100.3
20260505123006 61 225 0.0 8.0 0.00 0.00 0.00 78 100.2
20260505120006 62 203 0.0 7.0 0.00 0.00 0.00 76 100.2
20260505113007 62 225 0.0 7.0 0.00 0.00 0.00 76 100.2
20260505100008 62 315 0.0 11.0 0.00 0.00 0.00 75 100.1
20260505093006 62 270 0.0 9.0 0.00 0.00 0.00 76 100.0
20260505090008 62 45 0.0 9.0 0.00 0.00 0.00 76 100.0
20260505083007 62 68 0.0 9.0 0.00 0.00 0.00 79 100.0